PARS 1

Last updated on Thu Mar 05 2026 00:02:40 GMT+0000 (Coordinated Universal Time)

1 59065U 24039Q 26063.62297927 .00017175 00000+0 38701-3 0 9996 2 59065 97.4745 41.4872 0011755 125.4896 234.7450 15.43263349112507
UTC large
Height (km)
Speed (km/s)
/
Latitude / Longitude
Inclination (degrees)
Orbital Period (minutes)
Azimuth
Elevation
Range (km)
Doppler Factor

Next 0 passes for location: London (51.5072 / 0.1276)

Sorry there are no passes over London.